Printer-friendly version

IAU Minor Planet Center

Minor Planet Center

MPEC 2007-X35 : 2007 XK11

The following Minor Planet Electronic Circular may be linked-to from your own Web pages, but must not otherwise be redistributed electronically.


Read MPEC 2007-X34 Read MPEC 2007-X36


M.P.E.C. 2007-X35                                Issued 2007 Dec. 7, 17:28 UT

     The Minor Planet Electronic Circulars contain information on unusual
         minor planets and routine data on comets.  They are published
   on behalf of Commission 20 of the International Astronomical Union by the
          Minor Planet Center, Smithsonian Astrophysical Observatory,
                          Cambridge, MA 02138, U.S.A.

             Prepared using the Tamkin Foundation Computer Network

                              MPC@CFA.HARVARD.EDU
          URL http://www.cfa.harvard.edu/iau/mpc.html  ISSN 1523-6714

                                   2007 XK11

Observations:
     K07X11K* C2007 12 06.08860 01 43 49.76 -00 54 29.0          18.6 V EX035703
     K07X11K  C2007 12 06.09512 01 43 51.13 -00 54 17.1          18.9 V EX035703
     K07X11K  C2007 12 06.10161 01 43 52.57 -00 54 05.9          18.8 V EX035703
     K07X11K  C2007 12 06.10808 01 43 53.94 -00 53 54.2          18.8 V EX035703
     K07X11K  C2007 12 06.13906 01 44 00.63 -00 52 57.7          19.0 V EX035703
     K07X11K  C2007 12 06.14047 01 44 00.96 -00 52 55.6          18.7 V EX035703
     K07X11K  C2007 12 06.14189 01 44 01.28 -00 52 52.7          18.7 V EX035703
     K07X11K  C2007 12 06.14330 01 44 01.57 -00 52 50.0          18.9 V EX035703
     K07X11K  C2007 12 06.15281201 44 03.20 -00 52 35.0          18.3 V EX035H55
     K07X11K  C2007 12 06.15625801 44 03.96 -00 52 28.6          18.7 V EX035H55
     K07X11K  C2007 12 06.15979301 44 04.73 -00 52 22.2          19.0 V EX035H55
     K07X11K  C2007 12 06.21882 01 44 17.99 -00 50 32.1          18.8 R EX035651
     K07X11K  C2007 12 06.21991 01 44 18.25 -00 50 30.5          18.7 R EX035651
     K07X11K  C2007 12 06.22209 01 44 18.71 -00 50 26.2          18.8 R EX035651
     K07X11K  C2007 12 06.24387 01 44 23.57 -00 49 47.7          18.6 V EX035703
     K07X11K  C2007 12 06.24441 01 44 23.68 -00 49 46.7          18.5 V EX035703
     K07X11K  C2007 12 06.24494 01 44 23.78 -00 49 45.1          18.4 V EX035703
     K07X11K  C2007 12 06.24546 01 44 23.79 -00 49 44.5          18.8 V EX035703
     K07X11K  C2007 12 06.30616 01 44 36.98 -00 47 53.8          19.0 V EX035703
     K07X11K  C2007 12 06.30669 01 44 37.13 -00 47 51.8          19.3 V EX035703
     K07X11K  C2007 12 06.30722 01 44 37.27 -00 47 52.6          19.7 V EX035703
     K07X11K  C2007 12 06.30774 01 44 37.41 -00 47 50.3          19.2 V EX035703
     K07X11K  C2007 12 06.76292 01 46 20.38 -00 34 13.4          19.7 V EX035104
     K07X11K  C2007 12 06.76557 01 46 20.91 -00 34 08.9          18.6 V EX035104
     K07X11K  C2007 12 06.76851 01 46 21.62 -00 34 03.8          18.7 V EX035104

Observer details:
104 San Marcello Pistoiese.  Observers L. Tesi, G. Fagioli, M. Mazzucato.
    Measurers L. Tesi, M. Mazzucato.  0.60-m f/4 reflector + CCD.
651 Grasslands Observatory, Tucson.  Observer J. E. McGaha.  0.62-m f/5.1
    Newtonian reflector + CCD.
703 Catalina Sky Survey.  Observer R. E. Hill.  Measurers E. C. Beshore,
    A. Boattini, G. J. Garradd, A. R. Gibbs, A. D. Grauer, R. E. Hill,
    R. A. Kowalski, S. M. Larson, R. H. McNaught.  0.68-m Schmidt + CCD.
H55 Astronomical Research Observatory, Charleston.  Observer R. Holmes.
    Measurer B. Landals.  0.61-m f/4.0 astrograph + CCD.

Orbital elements:
2007 XK11                                           PHA, Earth MOID = 0.0496 AU
Epoch 2007 Oct. 27.0 TT = JDT 2454400.5                 MPC
M   3.12152              (2000.0)            P               Q
n   0.21244668     Peri.  196.42802     +0.99725577     -0.07292394
a   2.7816517      Node   167.73277     +0.07287041     +0.93643734
e   0.6225111      Incl.    3.44510     +0.01306998     +0.34317227
P   4.64           H   18.9           G   0.15           U   9
Residuals in seconds of arc
071206 703  1.0+  0.6+    071206 H55  0.1-  0.0     071206 703  1.1-  0.1+
071206 703  0.2+  0.6+    071206 H55  0.1-  0.0     071206 703  0.6-  1.2+
071206 703  0.5+  0.0     071206 651  0.3-  0.2+    071206 703  0.2-  0.6-
071206 703  0.1-  0.1-    071206 651  0.0   0.2-    071206 703  0.1+  0.7+
071206 703  1.0-  0.0     071206 651  0.2-  0.2+    071206 104  0.0   0.2+
071206 703  0.7-  0.5-    071206 703  1.6+  0.7-    071206 104  0.6-  0.0
071206 703  0.5-  0.2-    071206 703  1.5+  0.6-    071206 104  0.6+  0.2-
071206 703  0.7-  0.1-    071206 703  1.3+  0.0
071206 H55  0.2-  0.1-    071206 703  0.3-  0.4-

Ephemeris:
2007 XK11                a,e,i = 2.78, 0.62, 3                   q = 1.0500
Date    TT    R. A. (2000) Decl.     Delta      r     Elong.  Phase     V
2007 12 06    01 43.48   -00 57.0    0.384    1.264   129.4    37.0    18.8
2007 12 16    02 16.93   +03 33.6    0.475    1.335   129.0    34.9    19.4
2007 12 26    02 44.17   +07 07.5    0.582    1.411   126.7    34.0    19.9
2008 01 05    03 07.66   +09 59.5    0.704    1.489   123.1    33.6    20.4
2008 01 15    03 28.98   +12 20.5    0.839    1.570   118.7    33.3    20.9
2008 01 25    03 49.07   +14 17.5    0.987    1.652   113.8    33.0    21.3
2008 02 04    04 08.42   +15 55.0    1.145    1.734   108.7    32.6    21.8

Timothy B. Spahr             (C) Copyright 2007 MPC           M.P.E.C. 2007-X35

Read MPEC 2007-X34 Read MPEC 2007-X36


Our Web policy. Index to the CBAT/MPC/ICQ pages.


Valid HTML 4.01!